Location: Unspecified
(0.0000°N, 0.0000°E)
Time: 08:48:06
(UTC+00:00)

APRIZESAT 9 - Visible Passes

Search period start: 09 June 2023 00:00
Search period end: 19 June 2023 00:00
Orbit: 608 x 708 km, 97.8° (Epoch: 08 June)

Date Brightness Start Highest point End Pass type
(mag) Time Alt. Az. Time Alt. Az. Time Alt. Az.
09 Jun ? 03:53:25 52° NNE 03:53:25 52° NNE 03:57:04 10° N visible
10 Jun ? 04:22:51 35° NW 04:22:51 35° NW 04:25:51 10° NNW visible
11 Jun ? 03:14:20 21° ENE 03:14:20 21° ENE 03:17:13 10° NNE visible
11 Jun ? 04:52:18 15° WNW 04:52:18 15° WNW 04:53:39 10° WNW visible
12 Jun ? 03:43:47 42° NE 03:43:47 42° NE 03:47:12 10° N visible
13 Jun ? 04:13:13 39° NW 04:13:13 39° NW 04:16:15 10° NNW visible
14 Jun ? 03:04:42 15° ENE 03:04:42 15° ENE 03:06:45 10° NE visible
14 Jun ? 04:42:40 19° WNW 04:42:40 19° WNW 04:44:25 10° NW visible
15 Jun ? 03:34:09 32° NE 03:34:09 32° NE 03:37:13 10° N visible
16 Jun ? 04:03:35 40° NNW 04:03:35 40° NNW 04:06:31 10° NNW visible
17 Jun ? 02:55:04 11° ENE 02:55:04 11° ENE 02:55:45 10° ENE visible
17 Jun ? 04:33:02 22° NW 04:33:02 22° NW 04:35:00 10° NW visible
18 Jun ? 03:24:31 24° NE 03:24:31 24° NE 03:27:06 10° NNE visible
